Location: Zagreb
(45.8000°N, 16.0000°E)
Time: 14:52:55
(UTC+02:00)

Tiros 1 despin weight - Pass Details

Date: 10 August 2022
Orbit: 590 x 639 km, 48.2° (Epoch: 23 September)

Event Time Altitude Azimuth Distance (km) Brightness Sun altitude
Rises 12:51:05 0° 208° (SSW) 2,848 ? 59.6°
Reaches altitude 10° 12:53:44 10° 194° (SSW) 1,939 ? 59.6°
Maximum altitude 12:57:16 23° 141° (SE) 1,266 ? 59.7°
Drops below altitude 10° 13:00:47 10° 88° (E) 1,928 ? 59.7°
Sets 13:03:24 0° 74° (ENE) 2,827 ? 59.7°
